Satellite: AO-40 Catalog number: 26609 Epoch time: 01292.24650463 Element set: 157 Inclination: 6.1488 deg RA of node: 149.0606 deg Eccentricity: 0.7965226 Arg of perigee: 340.8030 deg Mean anomaly: 1.6267 deg Mean motion: 1.25592444 rev/day Decay rate: -6.80000e-07 rev/day^2 Epoch rev: 446 Checksum: 290